sat.trackr.live / text

‹ back to catalog

STARLINK-4181

NORAD 52882 · 2022-062BE

PAYLOAD ACTIVE UNKNOWN

§ Identity

Operator
Country
US
Launch date
2022-06-17
Launch site
AFETR
Launch vehicle
Mass (kg)
RCS (m²)

Purposes: comms

External: N2YO · Heavens-Above · Gunter

§ Orbital elements

Epoch: 2026-05-25T02:41:15.930816Z

Period
95.44 min
Inclination
53.2137°
Eccentricity
0.0001327
Mean motion
15.08829712 rev/d
Perigee alt
538.9 km
Apogee alt
540.7 km
Semi-major
6,917.9 km
B*
-1.3364e-5
RAAN
30.6194°
Arg perigee
57.8940°
Mean anomaly
302.2181°
Rev number
21,761

§ Raw data

STARLINK-41811 52882U 22062BE  26145.11198994 -.00000500  00000+0 -13364-4 0  99942 52882  53.2137  30.6194 0001327  57.8940 302.2181 15.08829712217614

JSON: /api/v1/satellites/52882 · /tle

For live sub-satellite position, see the globe view (requires WebGL).

§ Visibility from observer

Set your observer location to see the next 7 days of passes ≥ 10°. The values pass through the URL so the page stays shareable.

No JS? Fill the form by hand. The geolocation button needs JavaScript.